date,time,DOY,Ta_1_1_1,RH_1_1_1,LWin_1_1_1,LWout_1_1_1,SWin_1_1_1,SWout_1_1_1,PPFD_1_1_1,SWC_1_1_1,Ts_1_1_1
[yyyy-mm-dd],[HH:MM],[ddd.ddd],[K],[%],[W+1m-2],[W+1m-2],[W+1m-2],[W+1m-2],[µmol+1m-2s-1],[m+3m-3],[K]
2013-04-27,00:30,117.020,280.71200000000016,63.066000000000003,-9999.0,-9999.0,4.26666666666666583E-002,-3.4743333333333331,0.0000000000000000,-9999.0,273.15999999999991
2013-04-27,01:00,117.041,281.38000000000000,60.113999999999969,-9999.0,-9999.0,0.22766666666666671,-3.2539999999999987,0.0000000000000000,-9999.0,273.15999999999991
2013-04-27,01:30,117.062,281.88900000000007,57.804000000000002,-9999.0,-9999.0,6.03333333333333360E-002,-3.2940000000000009,0.0000000000000000,-9999.0,273.15999999999991
2013-04-27,02:00,117.083,282.02266666666662,58.086333333333329,-9999.0,-9999.0,-0.16300000000000001,-3.6036666666666672,6.66666666666666644E-004,-9999.0,273.15999999999991
2013-04-27,02:30,117.104,282.01833333333337,59.261000000000010,-9999.0,-9999.0,-0.14133333333333331,-3.8526666666666660,0.0000000000000000,-9999.0,273.15999999999991
2013-04-27,03:00,117.124,281.81800000000004,60.453999999999994,-9999.0,-9999.0,-0.24666666666666670,-4.0696666666666665,0.0000000000000000,-9999.0,273.15999999999991
2013-04-27,03:30,117.145,281.89266666666668,60.632333333333342,-9999.0,-9999.0,-0.18866666666666670,-3.8426666666666676,0.0000000000000000,-9999.0,273.15999999999991
2013-04-27,04:00,117.166,282.39400000000006,59.111999999999995,-9999.0,-9999.0,4.06666666666666565E-002,-3.6099999999999999,0.0000000000000000,-9999.0,273.15999999999991
2013-04-27,04:30,117.187,283.38299999999998,55.606333333333346,-9999.0,-9999.0,0.23433333333333325,-3.0813333333333333,7.60000000000000120E-002,-9999.0,273.15999999999991
2013-04-27,05:00,117.208,283.53200000000004,55.139000000000010,-9999.0,-9999.0,0.28033333333333332,6.83333333333332738E-002,4.7009999999999996,-9999.0,273.15999999999991
2013-04-27,05:30,117.229,283.84966666666668,54.289333333333339,-9999.0,-9999.0,3.0063333333333326,17.090666666666671,36.112999999999992,-9999.0,273.15999999999991
2013-04-27,06:00,117.249,283.36966666666672,56.097999999999999,-9999.0,-9999.0,8.8553333333333324,53.434999999999995,108.05966666666667,-9999.0,273.15999999999991
2013-04-27,06:30,117.270,282.33600000000007,59.662666666666659,-9999.0,-9999.0,18.497999999999998,113.59833333333333,224.49400000000003,-9999.0,273.15999999999991
2013-04-27,07:00,117.291,281.17166666666657,65.153666666666666,-9999.0,-9999.0,34.101666666666667,212.43633333333338,404.08266666666674,-9999.0,273.15999999999991
2013-04-27,07:30,117.312,283.52166666666665,57.768999999999998,-9999.0,-9999.0,55.044666666666664,348.71833333333336,659.57833333333315,-9999.0,273.15999999999991
2013-04-27,08:00,117.333,286.09300000000002,49.542666666666648,-9999.0,-9999.0,78.238666666666674,493.29166666666669,941.85199999999998,-9999.0,273.15999999999991
2013-04-27,08:30,117.354,287.83433333333335,44.155999999999985,-9999.0,-9999.0,92.534000000000006,577.49133333333327,1117.7666666666667,-9999.0,273.15999999999991
2013-04-27,09:00,117.374,288.33433333333335,43.224666666666657,-9999.0,-9999.0,108.76899999999998,651.21799999999996,1270.4633333333334,-9999.0,273.15999999999991
2013-04-27,09:30,117.395,289.59733333333332,41.358666666666664,-9999.0,-9999.0,121.42300000000002,722.77033333333338,1425.7606666666666,-9999.0,273.15999999999991
2013-04-27,10:00,117.416,289.85733333333337,40.498666666666665,-9999.0,-9999.0,134.50733333333335,782.73133333333351,1554.2653333333330,-9999.0,273.15999999999991
2013-04-27,10:30,117.437,290.18966666666671,37.337000000000003,-9999.0,-9999.0,144.15333333333336,832.79833333333340,1663.9059999999995,-9999.0,273.15999999999991
2013-04-27,11:00,117.458,290.69766666666669,33.212000000000003,-9999.0,-9999.0,153.90266666666668,871.81600000000003,1741.9156666666665,-9999.0,273.15999999999991
2013-04-27,11:30,117.479,290.85666666666663,33.472666666666662,-9999.0,-9999.0,159.08066666666670,897.93233333333342,1804.2323333333338,-9999.0,273.15999999999991
2013-04-27,12:00,117.499,290.56600000000003,32.846666666666671,-9999.0,-9999.0,158.64266666666668,899.08166666666659,1812.6090000000002,-9999.0,273.15999999999991
2013-04-27,12:30,117.520,290.89266666666668,30.589666666666673,-9999.0,-9999.0,160.77033333333335,913.12533333333329,1834.0833333333330,-9999.0,273.15999999999991
2013-04-27,13:00,117.541,291.13866666666667,30.392666666666674,-9999.0,-9999.0,137.50333333333336,800.52266666666662,1625.0320000000002,-9999.0,273.15999999999991
2013-04-27,13:30,117.562,291.58133333333342,28.771333333333327,-9999.0,-9999.0,144.40966666666665,847.54400000000010,1704.0666666666666,-9999.0,273.15999999999991
2013-04-27,14:00,117.583,291.63433333333342,31.623666666666676,-9999.0,-9999.0,113.76200000000001,679.14033333333327,1398.9489999999998,-9999.0,273.15999999999991
2013-04-27,14:30,117.604,291.67033333333336,33.669333333333327,-9999.0,-9999.0,109.85233333333333,670.21733333333339,1358.3173333333334,-9999.0,273.15999999999991
2013-04-27,15:00,117.624,291.63366666666667,34.055999999999997,-9999.0,-9999.0,69.593666666666650,422.99033333333335,880.03233333333321,-9999.0,273.15999999999991
2013-04-27,15:30,117.645,291.69533333333334,33.915999999999997,-9999.0,-9999.0,67.085333333333324,415.32266666666675,849.04933333333315,-9999.0,273.15999999999991
2013-04-27,16:00,117.666,291.82933333333330,33.376666666666665,-9999.0,-9999.0,64.964333333333343,405.83166666666654,819.45899999999995,-9999.0,273.15999999999991
2013-04-27,16:30,117.687,292.20800000000003,31.147333333333332,-9999.0,-9999.0,67.361999999999995,423.16533333333325,831.95366666666678,-9999.0,273.15999999999991
2013-04-27,17:00,117.708,292.49233333333336,30.255333333333333,-9999.0,-9999.0,64.790999999999997,406.18666666666661,776.50633333333326,-9999.0,273.15999999999991
2013-04-27,17:30,117.729,292.16066666666666,31.174666666666674,-9999.0,-9999.0,39.173666666666669,245.20366666666669,473.31999999999999,-9999.0,273.15999999999991
2013-04-27,18:00,117.749,291.63933333333341,32.239999999999995,-9999.0,-9999.0,22.806000000000004,136.87500000000000,267.36866666666657,-9999.0,273.15999999999991
2013-04-27,18:30,117.770,290.96200000000005,33.687666666666665,-9999.0,-9999.0,11.515666666666663,63.577666666666666,128.29800000000000,-9999.0,273.15999999999991
2013-04-27,19:00,117.791,289.75800000000004,39.070000000000000,-9999.0,-9999.0,3.0186666666666664,14.709999999999999,35.972333333333339,-9999.0,273.15999999999991
2013-04-27,19:30,117.812,288.87266666666659,42.920666666666662,-9999.0,-9999.0,-0.38866666666666660,-4.0673333333333330,2.7993333333333328,-9999.0,273.15999999999991
2013-04-27,20:00,117.833,288.11200000000002,45.855333333333327,-9999.0,-9999.0,-0.53733333333333333,-4.8553333333333324,1.86666666666666682E-002,-9999.0,273.15999999999991
2013-04-27,20:30,117.854,287.53066666666678,48.304666666666670,-9999.0,-9999.0,-0.43500000000000000,-4.3963333333333336,0.0000000000000000,-9999.0,273.15999999999991
2013-04-27,21:00,117.874,287.00066666666669,51.637333333333331,-9999.0,-9999.0,-0.59499999999999997,-4.1653333333333329,0.0000000000000000,-9999.0,273.15999999999991
2013-04-27,21:30,117.895,286.36899999999997,54.851666666666667,-9999.0,-9999.0,-0.52300000000000002,-3.9290000000000003,0.0000000000000000,-9999.0,273.15999999999991
2013-04-27,22:00,117.916,285.54266666666661,59.301666666666655,-9999.0,-9999.0,-0.56133333333333324,-3.9470000000000010,0.0000000000000000,-9999.0,273.15999999999991
2013-04-27,22:30,117.937,284.98133333333328,62.887999999999998,-9999.0,-9999.0,-0.45199999999999990,-3.3439999999999999,0.0000000000000000,-9999.0,273.15999999999991
2013-04-27,23:00,117.958,284.70800000000003,65.602333333333320,-9999.0,-9999.0,-0.56166666666666665,-2.8729999999999993,0.0000000000000000,-9999.0,273.15999999999991
2013-04-27,23:30,117.979,284.19733333333335,68.862333333333325,-9999.0,-9999.0,-0.33866666666666673,-3.6839999999999997,0.0000000000000000,-9999.0,273.15999999999991
2013-04-28,00:00,118.000,283.74133333333339,71.680333333333323,-9999.0,-9999.0,-0.21000000000000005,-3.6909999999999998,0.0000000000000000,-9999.0,273.15999999999991
